Meteor 2-10 Rocket - Orbit

View from above orbital plane
View from above orbital plane
View from above satellite
View from above satellite

Ground track
Ground track

The orbit data is extracted from the following two-line orbital elements,

1 14453U 83109B   13169.04774001  .00000031  00000-0  77011-5 0  8984
2 14453 081.1670 134.9453 0104381 327.5374 099.3015 14.24395788539644
Epoch (UTC): 18 June 2013 01:08:44
Eccentricity: 0.0104381
inclination: 81.1670°
perigee height: 735 km
apogee height: 885 km
right ascension of ascending node: 134.9453°
argument of perigee: 327.5374°
revolutions per day: 14.24395788
mean anomaly at epoch: 99.3015°
orbit number at epoch: 53964

The dashed part of the orbit path shows where the satellite is in the earth's shadow,  

Developed and maintained by Chris Peat, Heavens-Above GmbH. Please read the updated FAQ before sending e-mail. Imprint. DLR